This demonstration page uses our WeatherBlox Daily Observations layout. Learn more.

Left ArrowRight Arrow

44.89941, -97.11507

Hourly Observations for August 18, 2022

Temp ( °F °C ) Dew Point ( °F °C ) Humidity (%) Winds ( mph kmh ) Pressure ( in mb ) Visibility ( mi km ) Precip ( " mm )
12:53 am 00:53 Clear 70 21.1 62 16.7 76 76 S 7 11 29.99 1016 10 16 0.00 0.00
1:53 am 01:53 Clear 68 20 63 17.2 84 84 S 9 15 29.97 1015 10 16 0.00 0.00
2:53 am 02:53 Clear 66 18.9 62 16.7 87 87 S 5 7 29.96 1014 10 16 0.00 0.00
3:53 am 03:53 Clear 65 18.3 61 16.1 87 87 S 7 11 29.94 1014 10 16 0.00 0.00
4:53 am 04:53 Clear 65 18.3 61 16.1 87 87 N 5 7 29.92 1013 10 16 0.00 0.00
5:53 am 05:53 Clear 66 18.9 61 16.1 84 84 S 7 11 29.90 1013 10 16 0.00 0.00
6:53 am 06:53 Sunny 65 18.3 61 16.1 87 87 SSE 9 15 29.89 1012 10 16 0.00 0.00
7:53 am 07:53 Mostly Sunny 67 19.4 62 16.7 84 84 S 7 11 29.91 1013 10 16 0.00 0.00
8:53 am 08:53 Sunny 68 20 63 17.2 84 84 N 7 11 29.93 1014 10 16 0.00 0.00
9:21 am 09:21 Mostly Cloudy with Nearby Thunderstorms 70 21.1 63 17.2 78 78 VRB 3 6 29.88 1012 10 16 0.00 0.00
9:53 am 09:53 Mostly Cloudy 69 20.6 63 17.2 81 81 NE 7 11 29.87 1012 10 16 0.00 0.00
10:53 am 10:53 Sunny 73 22.8 64 17.8 73 73 SSE 7 11 29.88 1012 10 16 0.00 0.00
11:53 am 11:53 Partly Cloudy 75 23.9 63 17.2 66 66 E 7 11 29.87 1011 10 16 0.00 0.00
12:53 pm 12:53 Cloudy 79 26.1 62 16.7 56 56 NNE 10 17 29.87 1012 10 16 0.00 0.00
1:53 pm 13:53 Cloudy 78 25.6 61 16.1 56 56 NNE 15 24 29.88 1012 10 16 0.00 0.00
2:05 pm 14:05 Mostly Cloudy with Nearby Thunderstorms 78 25.6 61 16.1 56 56 N 15 24 29.81 1009 10 16 0.00 0.00
2:20 pm 14:20 Partly Cloudy 77 25 59 15 54 54 NNE 14 22 29.81 1010 10 16 0.00 0.00
2:53 pm 14:53 Mostly Sunny 77 25 60 15.6 56 56 N 12 19 29.87 1011 10 16 0.00 0.00
3:53 pm 15:53 Sunny 79 26.1 62 16.7 56 56 NNW 13 20 29.86 1011 10 16 0.00 0.00
4:53 pm 16:53 Sunny 78 25.6 60 15.6 54 54 NNW 15 24 29.85 1011 10 16 0.00 0.00
5:53 pm 17:53 Sunny 75 23.9 60 15.6 60 60 NNW 14 22 29.84 1011 10 16 0.00 0.00
6:53 pm 18:53 Sunny 75 23.9 61 16.1 62 62 NW 12 19 29.84 1011 10 16 0.00 0.00
7:20 pm 19:20 Mostly Sunny 73 22.8 59 15 61 61 NNW 13 20 29.80 1009 10 16 0.00 0.00
7:53 pm 19:53 Sunny 73 22.8 61 16.1 66 66 NNW 7 11 29.83 1010 10 16 0.00 0.00
8:53 pm 20:53 Clear 68 20 60 15.6 76 76 NW 6 9 29.84 1011 10 16 0.00 0.00
9:53 pm 21:53 Mostly Clear 67 19.4 61 16.1 81 81 WNW 6 9 29.85 1011 10 16 0.00 0.00
10:53 pm 22:53 Mostly Clear 67 19.4 61 16.1 81 81 NW 9 15 29.85 1011 10 16 0.00 0.00
11:53 pm 23:53 Clear 65 18.3 62 16.7 90 90 WNW 7 11 29.84 1011 10 16 0.00 0.00

Powered by AerisWeather